Terminal Aerodrome Forecast
Issued by NWS La Crosse, WI

Home | Current Version | Previous Version | Text Only | Print | Product List | Glossary On
Versions: 1 2 3 4 5 6 7 8 9 10 11 12 13 14 15 16 17 18 19 20 21 22 23 24 25 26 27 28 29 30 31 32 33 34 35 36 37
000
FTUS43 KARX 092328
TAFLSE
TAF
KLSE 092328Z 1000/1024 32013KT P6SM SKC
     FM100400 33008KT P6SM SKC
     FM101200 33007KT P6SM SCT150=

USA.gov is the U.S. government's official web portal to all federal, state and local government web resources and services.